Palacios, TX

10:11 AM CDT on April 23, 2018 (GMT -0500)
Palacios Municipal

Weather History for KPSX - March, 2013

Change the Weather History Date:

Tuesday, March 26, 2013

  Actual Average Record
Temperature  
Mean Temperature 52 °F -  
Max Temperature 68 °F 72 °F 85 °F (1959)
Min Temperature 37 °F 56 °F 30 °F (1955)
Degree Days  
Heating Degree Days 12    
Growing Degree Days 2 (Base 50)    
Moisture  
Dew Point 26 °F    
Average Humidity 39    
Maximum Humidity 65    
Minimum Humidity 14    
Precipitation  
Precipitation 0.00 in - - ()
Sea Level Pressure  
Sea Level Pressure 30.40 in    
Wind  
Wind Speed 8 mph (NE)    
Max Wind Speed 14 mph    
Max Gust Speed 20 mph    
Visibility 10 miles    
Events      
Averages and records for this station are not official NWS values.
T = Trace of Precipitation, MM = Missing Value Source: NWS Daily Summary

Daily Weather History Graph

Daily Weather History Graph

Search for Another Location

Airport or City:

Astronomy

Mar. 26, 2013 Rise Set
Actual Time 7:21 AM CDT 7:39 PM CDT
Civil Twilight 6:57 AM CDT 8:03 PM CDT
Nautical Twilight 6:30 AM CDT 8:31 PM CDT
Astronomical Twilight 6:02 AM CDT 8:59 PM CDT
Moon 7:16 PM CDT (3/26) 6:37 AM CDT (3/26)
Length of Visible Light 13h 05m
Length of Day
12h 18m
Waxing Gibbous, 99% of the Moon is Illuminated
Mar 26
Waxing Gibbous
Mar 27
Full
Apr 2
Last Quarter
Apr 10
New
Apr 18
First Quarter

Hourly Weather History & Observations

Time (CDT) Temp. Windchill Dew Point Humidity Pressure Visibility Wind Dir Wind Speed Gust Speed Precip Events Conditions
12:53 AM 45.0 °F 40.1 °F 26.1 °F 48% 30.38 in 10.0 mi North 9.2 mph - N/A   Clear
1:53 AM 43.0 °F 38.8 °F 26.1 °F 51% 30.39 in - NNE 6.9 mph - N/A   Clear
2:53 AM 45.0 °F 39.7 °F 26.1 °F 48% 30.39 in - NNE 10.4 mph - N/A   Clear
3:53 AM 41.0 °F 36.4 °F 26.1 °F 55% 30.39 in - NNE 6.9 mph - N/A   Clear
4:53 AM 42.1 °F 40.2 °F 26.1 °F 53% 30.40 in - East 3.5 mph - N/A   Clear
5:53 AM 42.1 °F 39.2 °F 25.0 °F 51% 30.40 in - NE 4.6 mph - N/A   Clear
7:53 AM 37.9 °F 32.7 °F 27.0 °F 65% 30.46 in - NE 6.9 mph - N/A   Clear
8:53 AM 50.0 °F - 25.0 °F 38% 30.48 in - ENE 12.7 mph - N/A   Clear
9:53 AM 55.0 °F - 19.0 °F 24% 30.49 in - ENE 11.5 mph - N/A   Clear
10:53 AM 59.0 °F - 18.0 °F 20% 30.49 in 10.0 mi NE 6.9 mph - N/A   Clear
11:53 AM 61.0 °F - 17.1 °F 18% 30.48 in 10.0 mi ENE 8.1 mph 16.1 mph N/A   Clear
12:53 PM 63.0 °F - 17.1 °F 17% 30.45 in 10.0 mi NNE 10.4 mph 18.4 mph N/A   Clear
1:53 PM 66.0 °F - 19.0 °F 17% 30.42 in 10.0 mi NNE 11.5 mph 17.3 mph N/A   Clear
2:53 PM 66.0 °F - 19.0 °F 17% 30.39 in 10.0 mi North 12.7 mph 17.3 mph N/A   Clear
3:53 PM 66.9 °F - 19.0 °F 16% 30.36 in 10.0 mi NNE 13.8 mph 19.6 mph N/A   Clear
4:53 PM 68.0 °F - 17.1 °F 14% 30.34 in 10.0 mi North 8.1 mph - N/A   Clear
5:53 PM 66.0 °F - 18.0 °F 16% 30.33 in 10.0 mi North 5.8 mph - N/A   Clear
6:53 PM 60.1 °F - 35.1 °F 39% 30.34 in 10.0 mi SSE 9.2 mph - N/A   Clear
7:53 PM 54.0 °F - 36.0 °F 51% 30.35 in 10.0 mi SE 6.9 mph - N/A   Clear
8:53 PM 50.0 °F - 37.0 °F 61% 30.35 in 10.0 mi SE 5.8 mph - N/A   Clear
9:53 PM 51.1 °F - 39.0 °F 63% 30.36 in 10.0 mi SE 8.1 mph - N/A   Clear
10:53 PM 53.1 °F - 39.0 °F 59% 30.38 in 10.0 mi SSE 6.9 mph - N/A   Clear
11:53 PM 52.0 °F - 39.9 °F 63% 30.37 in 10.0 mi SSE 5.8 mph - N/A   Clear